Location: Brompton
(51.4000°N, 0.5333°E)
Time: 15:45:41
(UTC+00:00)

Cosmos 1821 Rocket - Pass Details

Date: 11 May 2021
Orbit: 945 x 1005 km, 82.9° (Epoch: 23 June)

Event Time Altitude Azimuth Distance (km) Brightness Sun altitude
Rises 23:29:28 0° 350° (N) 3,745 8.7 -20.3°
Reaches altitude 10° 23:32:01 10° 351° (N) 2,792 7.6 -20.3°
Maximum altitude 23:38:28 84° 80° (E) 1,016 4.0 -20.4°
Enters shadow 23:41:21 36° 166° (SSE) 1,542 4.5 -20.4°
